Farmville, Virginia, United States (23901)
Lat: 37.30N, Lon: 78.39W
Wx Zone: VAZ060
Local Info
Past Weather Observations for Yesterday

NOTE: This archive is for the closest National Weather Service station to Farmville. Information may differ from the station used for current weather conditions.

Click here for Long-term Archive

Time Weather Temperature Dewpoint Humidity Pressure Winds Precip Visibility
23:55
Clear
Fog And Mist
59°F / 15°C 57°F / 14°C 94% 30.06 in
(1018 mb)
Calm - 3SM
23:35
Clear
63°F / 17°C 61°F / 16°C 94% 30.06 in
(1018 mb)
Calm - 10SM
23:15
Clear
61°F / 16°C 59°F / 15°C 94% 30.06 in
(1018 mb)
Calm - 7SM
22:55
Clear
61°F / 16°C 59°F / 15°C 94% 30.06 in
(1018 mb)
Calm - 10SM
22:35
Clear
63°F / 17°C 61°F / 16°C 94% 30.06 in
(1018 mb)
Calm - 10SM
22:15
Clear
63°F / 17°C 61°F / 16°C 94% 30.06 in
(1018 mb)
Calm - 10SM
21:55
Clear
63°F / 17°C 61°F / 16°C 94% 30.06 in
(1018 mb)
Calm - 10SM
21:35
Clear
66°F / 19°C 59°F / 15°C 78% 30.06 in
(1018 mb)
Calm - 10SM
21:15
Clear
64°F / 18°C 59°F / 15°C 83% 30.06 in
(1018 mb)
Calm - 10SM
20:55
Clear
66°F / 19°C 59°F / 15°C 78% 30.06 in
(1018 mb)
Calm - 10SM
20:35
Clear
66°F / 19°C 57°F / 14°C 73% 30.06 in
(1018 mb)
Calm - 10SM
20:15
Clear
70°F / 21°C 57°F / 14°C 64% 30.06 in
(1018 mb)
Calm - 10SM
19:55
Clear
68°F / 20°C 57°F / 14°C 69% 30.06 in
(1018 mb)
Calm - 10SM
19:35
Clear
70°F / 21°C 57°F / 14°C 64% 30.06 in
(1018 mb)
Calm - 10SM
19:15
Clear
72°F / 22°C 57°F / 14°C 61% 30.06 in
(1018 mb)
Calm - 10SM
18:55
Clear
73°F / 23°C 57°F / 14°C 57% 30.06 in
(1018 mb)
Calm - 10SM
18:35
Clear
75°F / 24°C 57°F / 14°C 54% 30.04 in
(1017 mb)
Calm - 10SM
18:15
Clear
77°F / 25°C 55°F / 13°C 47% 30.04 in
(1017 mb)
Calm - 10SM
17:55
Clear
77°F / 25°C 55°F / 13°C 47% 30.04 in
(1017 mb)
Calm - 10SM
17:35
Clear
79°F / 26°C 54°F / 12°C 42% 30.04 in
(1017 mb)
SSE 4.6 mph
(SSE 7 kph)
- 10SM
17:15
Clear
79°F / 26°C 54°F / 12°C 42% 30.04 in
(1017 mb)
SW 4.6 mph
(SW 7 kph)
- 10SM
16:55
Clear
79°F / 26°C 54°F / 12°C 42% 30.04 in
(1017 mb)
SSE 6.9 mph
(SSE 11 kph)
- 10SM
16:35
Clear
79°F / 26°C 54°F / 12°C 42% 30.04 in
(1017 mb)
SW 8.1 mph
(SW 13 kph)
- 10SM
16:15
Clear
79°F / 26°C 55°F / 13°C 45% 30.04 in
(1017 mb)
S 6.9 mph
(S 11 kph)
- 10SM
15:55
Partly Cloudy
81°F / 27°C 54°F / 12°C 39% 30.04 in
(1017 mb)
SW 5.8 mph
(SW 9 kph)
- 10SM
15:35
Partly Cloudy
81°F / 27°C 54°F / 12°C 39% 30.04 in
(1017 mb)
SW 6.9 mph
(SW 11 kph)
- 10SM
15:15
Mostly Cloudy
81°F / 27°C 52°F / 11°C 37% 30.04 in
(1017 mb)
SSE 6.9 mph
(SSE 11 kph)
- 10SM
14:55
Mostly Cloudy
81°F / 27°C 54°F / 12°C 39% 30.04 in
(1017 mb)
SSW 8.1 mph
(SSW 13 kph)
- 10SM
14:35
Mostly Cloudy
79°F / 26°C 52°F / 11°C 39% 30.06 in
(1018 mb)
Calm - 10SM
14:15
Partly Cloudy
81°F / 27°C 52°F / 11°C 37% 30.06 in
(1018 mb)
E 3.5 mph
(E 6 kph)
- 10SM
13:55
Partly Cloudy
81°F / 27°C 52°F / 11°C 37% 30.06 in
(1018 mb)
S 8.1 mph
(S 13 kph)
- 10SM
13:35
Partly Cloudy
79°F / 26°C 52°F / 11°C 39% 30.06 in
(1018 mb)
S 5.8 mph
(S 9 kph)
- 10SM
13:15
Mostly Cloudy
79°F / 26°C 52°F / 11°C 39% 30.06 in
(1018 mb)
S 10.4 mph
(S 17 kph)
- 10SM
12:55
Mostly Cloudy
79°F / 26°C 52°F / 11°C 39% 30.06 in
(1018 mb)
S 6.9 mph
(S 11 kph)
- 10SM
12:35
Mostly Cloudy
79°F / 26°C 52°F / 11°C 39% 30.06 in
(1018 mb)
SSE 6.9 mph
(SSE 11 kph)
- 10SM
12:15
Clear
75°F / 24°C 52°F / 11°C 44% 30.09 in
(1019 mb)
E 4.6 mph
(E 7 kph)
- 10SM
11:55
Partly Cloudy
75°F / 24°C 52°F / 11°C 44% 30.09 in
(1019 mb)
SSE 5.8 mph
(SSE 9 kph)
- 10SM
11:35
Partly Cloudy
77°F / 25°C 52°F / 11°C 42% 30.09 in
(1019 mb)
SW 6.9 mph
(SW 11 kph)
- 10SM
11:15
Partly Cloudy
75°F / 24°C 52°F / 11°C 44% 30.09 in
(1019 mb)
S 6.9 mph
(S 11 kph)
- 10SM
10:55
Partly Cloudy
75°F / 24°C 50°F / 10°C 41% 30.09 in
(1019 mb)
ESE 4.6 mph
(ESE 7 kph)
- 10SM
10:35
Partly Cloudy
75°F / 24°C 52°F / 11°C 44% 30.09 in
(1019 mb)
ENE 4.6 mph
(ENE 7 kph)
- 10SM
10:15
Mostly Cloudy
73°F / 23°C 50°F / 10°C 44% 30.09 in
(1019 mb)
SW 3.5 mph
(SW 6 kph)
- 10SM
09:55
Mostly Cloudy
73°F / 23°C 50°F / 10°C 44% 30.09 in
(1019 mb)
ENE 3.5 mph
(ENE 6 kph)
- 10SM
09:35
Clear
73°F / 23°C 52°F / 11°C 47% 30.09 in
(1019 mb)
Calm - 10SM
09:15
Clear
72°F / 22°C 50°F / 10°C 47% 30.09 in
(1019 mb)
Calm - 10SM
08:55
Clear
72°F / 22°C 52°F / 11°C 50% 30.09 in
(1019 mb)
Calm - 10SM
08:35
Clear
70°F / 21°C 50°F / 10°C 50% 30.09 in
(1019 mb)
Calm - 10SM
08:15
Clear
70°F / 21°C 52°F / 11°C 53% 30.09 in
(1019 mb)
Calm - 10SM
07:55
Clear
66°F / 19°C 54°F / 12°C 64% 30.09 in
(1019 mb)
Calm - 10SM
07:35
Partly Cloudy
64°F / 18°C 54°F / 12°C 68% 30.09 in
(1019 mb)
Calm - 10SM
07:15
Mostly Cloudy
63°F / 17°C 55°F / 13°C 77% 30.09 in
(1019 mb)
Calm - 10SM
06:55
Partly Cloudy
61°F / 16°C 59°F / 15°C 94% 30.09 in
(1019 mb)
Calm - 10SM
06:35
Partly Cloudy
59°F / 15°C 57°F / 14°C 94% 30.06 in
(1018 mb)
Calm - 10SM
06:15
Clear
57°F / 14°C 57°F / 14°C 100% 30.06 in
(1018 mb)
Calm - 10SM
05:55
Clear
57°F / 14°C 55°F / 13°C 94% 30.06 in
(1018 mb)
Calm - 10SM
05:35
Clear
57°F / 14°C 55°F / 13°C 94% 30.06 in
(1018 mb)
NNW 3.5 mph
(NNW 6 kph)
- 10SM
05:15
Clear
55°F / 13°C 54°F / 12°C 94% 30.06 in
(1018 mb)
Calm - 10SM
04:55
Clear
57°F / 14°C 57°F / 14°C 100% 30.06 in
(1018 mb)
NNW 3.5 mph
(NNW 6 kph)
- 10SM
04:35
Clear
57°F / 14°C 55°F / 13°C 94% 30.06 in
(1018 mb)
Calm - 10SM
04:15
Clear
61°F / 16°C 54°F / 12°C 77% 30.06 in
(1018 mb)
Calm - 10SM
03:55
Partly Cloudy
61°F / 16°C 54°F / 12°C 77% 30.04 in
(1017 mb)
NW 4.6 mph
(NW 7 kph)
- 10SM
03:35
Mostly Cloudy
63°F / 17°C 54°F / 12°C 73% 30.04 in
(1017 mb)
NW 3.5 mph
(NW 6 kph)
- 10SM
03:15
Overcast
63°F / 17°C 55°F / 13°C 77% 30.04 in
(1017 mb)
Calm - 10SM
02:55
Mostly Cloudy
61°F / 16°C 61°F / 16°C 100% 30.04 in
(1017 mb)
Calm - 10SM
02:35
Overcast
61°F / 16°C 59°F / 15°C 94% 30.04 in
(1017 mb)
Calm - 10SM
02:15
Overcast
63°F / 17°C 59°F / 15°C 88% 30.04 in
(1017 mb)
Calm - 10SM
01:55
Mostly Cloudy
61°F / 16°C 61°F / 16°C 100% 30.04 in
(1017 mb)
Calm - 10SM
01:35
Mostly Cloudy
63°F / 17°C 61°F / 16°C 94% 30.04 in
(1017 mb)
Calm - 10SM
01:15
Overcast
63°F / 17°C 61°F / 16°C 94% 30.04 in
(1017 mb)
Calm - 10SM
00:55
Overcast
63°F / 17°C 61°F / 16°C 94% 30.04 in
(1017 mb)
Calm - 10SM
00:35
Overcast
63°F / 17°C 61°F / 16°C 94% 30.04 in
(1017 mb)
Calm - 10SM
00:15
Overcast
63°F / 17°C 61°F / 16°C 94% 30.04 in
(1017 mb)
Calm - 10SM
Time Weather Temperature Dewpoint Humidity Pressure Winds Precip Visibility


Weather for websites

WeatherForYou.com, LLC is not responsible for any damages or problems caused by this service. Current weather conditions are obtained from the closest station including government and personal stations which may have varying degrees of accuracy. Weather forecasts are derived from the NOAA NDFD. Like all things, this site belongs to Jesus Christ... He just trusts me to maintain it. If you have any questions or comments email webmaster@weatherforyou.com

Copyright © 2014, WeatherForYou.com LLC. All rights reserved.